{"data":{"norad_id":65720,"epoch":"2026-09-20T11:33:56.239488Z","epoch_age_seconds":151308,"freshness":"FRESH","line1":"1 65720U 25214J   26263.48190092  .00000952  00000+0  14149-3 0  9993","line2":"2 65720  49.9906 226.8547 0009502 223.1032 136.9163 14.83606247 53651","mean_motion":14.83606247,"eccentricity":0.0009502,"inclination_deg":49.9906,"raan_deg":226.8547,"arg_perigee_deg":223.1032,"mean_anomaly_deg":136.9163,"bstar":0.00014149,"rev_number":5365,"period_min":97.06079378621,"perigee_km":611.31633440644,"apogee_km":624.6117248031,"semimajor_km":6996.1010296048,"source":"CELESTRAK","updated_at":"2026-09-21T09:00:15.523800Z"}}